ONEWEB-0038, 45145

Orbit data source: Space-Track

ONEWEB-0038, 45145 is a payload satellite owned by One Web (UK) in LEO that was launched on Thu, 06 Feb 2020 UTC via a SOYUZ-2-1B launch vehicle from the Tyuratam Missile And Space Complex (TTMTR). Payload-class satellites include a variety of spacecraft equipped with specific instruments for various scientific and technological missions. These include communications satellites like Starlink; space stations such as the ISS; scientific satellites like the Hubble; Earth observation satellites from companies like Planet Labs, Umbra, and HawkEye 360; GPS; miniature CubeSats for education and research; and military/defense satellites.

Loading next visibility...
Identifier
45145, 2020-008Q
Orbit
LEO
Last TLE update
22 hours ago
Origin
Manufacturer
One Web
Mission
Operational Commercial Communications
Bus & Motor
ARROW, Unknown motor
Mass
148 kg wet, ~140 kg dry
Launch date (UTC)
2020-02-06 (5 years ago)
Launch vehicle
SOYUZ-2-1B
Launch site
Tyuratam Missile And Space Complex (TTMTR)
Object type
Payload
Rocket body
Debris
Shape & HBR
Trap Box + 2 Pan, 5 m
Radar Cross Section
2.957 m², Large (>1 m²)

Expand to show TLE details & history

TLE from 22 hours ago
0 ONEWEB-0038
1 45145U 20008Q   25185.78885906 -.00016251  00000-0 -46061-1 0  9996
2 45145  87.8835  90.3030 0001474   6.6233 353.4914 13.11278393264796
Epoch: 2025-07-04T18:55Z
TLE epoch observation values (Epoch: 2025-07-04T18:55:57.422Z)
Latitude
-0.00005°
Longitude
-116.72248°
Altitude
1,219.994 km
Speed
7.245 km/s
True Right ascension
06h 01m 12s
True Declination
0° 00' 00"
Sunlit
Object was in daylight at epoch
Visualization orbit readout
Latitude
33.45508°
Longitude
-115.51417°
Altitude
1,221.731 km
Speed
7.247 km/s
Apparent Right ascension
08h 46m 43s
Apparent Declination
2° 37' 19"
Sunlit
Object is in daylight
Visualization observer readout
Local Sidereal Time
04:59:59
Azimuth
110.795° ESE
Elevation
26.757°
Doppler factor
1
Orbital elements
Apogee altitude
1,216.456 km
Perigee altitude
1,214.217 km
Semi-major axis
7,593.473 km
Eccentricity
0.00015
Inclination
87.8835°
RAAN
90.303°
Arg. of periapsis
6.6233°
True anomaly
Unknown
Mean anomaly
353.4914°
Eccentric anomaly
Unknown
Mean motion
3.28007 °/min
Orbital period
109.75 mins
BSTAR
-0.046061
Loading maneuver chart data...
Loading SW <> Apogee altitude chart data...
Loading historical data...
Loading historical data...
Loading historical data...
Loading historical data...
Loading historical data...
Loading historical data...
Loading historical data...

ONEWEB-0038 Visibility forecast

Observer location: undefined°, undefined°

Span
Click to sort rows by Start time (UTC) header in descending order
Start Az.
Max El. time (UTC)
Max El. Az.
Max El.
End time (UTC)
End Az.
8 mins2025-07-05 17:04:40.975Z111.086° ESE2025-07-05 17:06:40.975Z84.605° E28.003°2025-07-05 17:12:40.975Z22.593° NE
11 mins2025-07-05 18:51:40.975Z212.861° SW2025-07-05 18:56:40.975Z276.367° WNW35.312°2025-07-05 19:02:40.975Z344.907° N
10 mins2025-07-06 04:31:40.975Z32.86° NE2025-07-06 04:35:40.975Z73.106° E23.475°2025-07-06 04:41:40.975Z130.062° SE
12 mins2025-07-06 06:20:40.975Z347.389° N2025-07-06 06:26:40.975Z263.784° W39.584°2025-07-06 06:32:40.975Z201.52° SSW
10 mins2025-07-06 16:50:40.975Z127.914° SE2025-07-06 16:55:40.975Z76.884° E25.825°2025-07-06 17:00:40.975Z26.931° NE
|